EW5239 Weather Reports


time (UTC)temp
F
wind
direction
speed
knots
gust
knots
rain 1hr
in
rain 24hr
in
rain mn
in
humidity
%
barometer
mb
20260508065005 48 313 3.5 5.2 0.00 0.00 0.00 96 1015.2
20260508065003 48 307 3.5 6.1 0.00 0.01 0.00 98 1017.2
20260508064505 48 321 3.5 5.2 0.00 0.00 0.00 96 1015.2
20260508064005 48 299 2.6 4.3 0.00 0.00 0.00 97 1015.2
20260508064003 47 295 2.6 4.3 0.00 0.01 0.00 99 1017.1
20260508063505 48 294 3.5 4.3 0.00 0.00 0.00 97 1015.0
20260508063503 47 319 2.6 3.5 0.00 0.01 0.00 99 1016.9
20260508063006 48 324 3.5 5.2 0.00 0.01 0.00 97 1015.1
20260508063003 47 336 3.5 5.2 0.00 0.01 0.00 99 1016.8
20260508062505 48 344 3.5 6.1 0.00 0.01 0.00 98 1014.9
20260508062503 47 335 3.5 6.1 0.00 0.02 0.00 99 1017.1
20260508062005 47 336 3.5 6.1 0.00 0.02 0.00 98 1015.0
20260508062003 47 328 3.5 6.1 0.00 0.04 0.00 99 1016.9
20260508061504 47 323 2.6 4.3 0.00 0.04 0.00 99 1016.9
20260508061006 47 345 3.5 4.3 0.00 0.02 0.00 98 1015.0
20260508061003 47 335 2.6 3.5 0.00 0.04 0.00 99 1017.1
20260508060505 47 344 2.6 3.5 0.00 0.04 0.00 98 1014.9
20260508060006 47 291 2.6 4.3 0.00 0.04 0.00 98 1014.8
20260508055505 47 317 2.6 4.3 0.00 0.04 0.00 98 1014.9
20260508055503 47 341 2.6 3.5 0.00 0.05 0.00 99 1016.6
20260508055005 47 322 2.6 3.5 0.00 0.04 0.00 98 1014.9
20260508055003 47 337 2.6 3.5 0.00 0.05 0.00 99 1016.7
20260508054506 47 305 1.7 3.5 0.00 0.04 0.00 98 1014.8
20260508054503 47 337 2.6 3.5 0.00 0.05 0.00 99 1016.7
20260508054004 47 335 2.6 5.2 0.00 0.05 0.00 99 1016.7
20260508053505 47 273 2.6 5.2 0.00 0.04 0.00 98 1014.8
20260508053503 46 322 2.6 5.2 0.00 0.05 0.00 99 1016.6
20260508053005 47 302 2.6 3.5 0.00 0.04 0.00 98 1014.6
20260508052505 47 314 1.7 3.5 0.00 0.05 0.00 98 1014.8
20260508052503 46 297 1.7 3.5 0.00 0.06 0.00 99 1016.7
20260508052005 47 304 1.7 3.5 0.00 0.06 0.00 98 1014.8
20260508052003 46 313 1.7 2.6 0.00 0.08 0.00 99 1016.6
20260508051505 46 307 1.7 3.5 0.00 0.08 0.00 97 1014.8
20260508051503 46 320 1.7 2.6 0.00 0.11 0.00 97 1016.8
20260508051005 46 299 2.6 3.5 0.00 0.08 0.00 97 1014.8
20260508050505 46 285 3.5 4.3 0.00 0.08 0.00 97 1014.8
20260508050503 46 300 2.6 4.3 0.00 0.11 0.00 97 1016.7
20260508050010 46 290 3.5 4.3 0.00 0.11 0.00 97 1016.5
20260508050005 46 266 3.5 5.2 0.00 0.08 0.00 97 1014.8
20260508045005 46 294 3.5 4.3 0.00 0.08 0.00 96 1014.7
20260508045003 46 296 3.5 4.3 0.00 0.11 0.00 97 1016.7
20260508044505 46 295 4.3 5.2 0.00 0.08 0.00 96 1014.6
20260508044003 46 283 3.5 5.2 0.00 0.11 0.00 97 1016.6
20260508043505 47 295 3.5 4.3 0.00 0.08 0.00 96 1014.6
20260508043503 46 297 3.5 4.3 0.00 0.11 0.00 97 1016.5
20260508043005 47 315 2.6 3.5 0.00 0.08 0.00 96 1014.7
20260508043003 46 303 2.6 3.5 0.00 0.11 0.00 97 1016.7
20260508042505 46 317 2.6 4.3 0.00 0.08 0.00 96 1014.6
20260508042503 46 290 2.6 4.3 0.00 0.11 0.00 97 1016.5
20260508042005 47 305 2.6 4.3 0.00 0.08 0.00 96 1014.6
20260508042003 46 283 2.6 4.3 0.00 0.11 0.00 97 1016.5
20260508041504 46 285 1.7 3.5 0.00 0.11 0.00 97 1016.5
20260508041005 47 348 3.5 3.5 0.00 0.08 0.00 95 1014.5
20260508040505 47 346 2.6 3.5 0.00 0.08 0.00 95 1014.5
20260508040503 46 330 2.6 3.5 0.00 0.11 0.00 97 1016.3
20260508040005 47 319 2.6 3.5 0.00 0.08 0.00 95 1014.4
20260508035505 47 328 2.6 3.5 0.00 0.08 0.00 95 1014.2
20260508035503 46 342 2.6 3.5 0.00 0.11 0.00 97 1016.1
20260508034505 47 308 2.6 4.3 0.00 0.08 0.00 95 1014.1
20260508034003 46 342 2.6 4.3 0.00 0.12 0.00 96 1016.0
20260508033505 47 295 2.6 4.3 0.00 0.08 0.00 94 1014.1
20260508033503 46 323 2.6 4.3 0.00 0.12 0.00 96 1016.1
20260508033005 47 317 2.6 4.3 0.00 0.08 0.00 94 1014.2
20260508033003 46 327 2.6 4.3 0.00 0.12 0.00 95 1015.8
20260508032503 46 330 1.7 4.3 0.00 0.12 0.00 95 1016.1
20260508032005 47 339 2.6 3.5 0.00 0.08 0.00 94 1014.1
20260508032003 46 341 1.7 3.5 0.00 0.12 0.00 95 1016.0
20260508031505 47 337 2.6 4.3 0.00 0.08 0.00 94 1014.1
20260508031005 47 333 3.5 5.2 0.00 0.08 0.00 94 1014.1
20260508031003 46 345 2.6 5.2 0.00 0.12 0.00 95 1016.1
20260508030505 47 340 3.5 5.2 0.00 0.08 0.00 94 1014.0
20260508030503 46 343 2.6 5.2 0.00 0.12 0.00 95 1015.9
20260508030009 46 316 2.6 3.5 0.00 0.12 0.00 95 1015.8
20260508030005 47 344 3.5 4.3 0.00 0.08 0.00 94 1014.1
20260508025505 47 339 3.5 4.3 0.00 0.08 0.00 93 1013.9
20260508025503 46 307 3.5 3.5 0.00 0.12 0.00 95 1015.9
20260508025005 47 336 4.3 4.3 0.00 0.08 0.00 93 1013.9
20260508025003 46 307 3.5 4.3 0.00 0.12 0.00 95 1016.0
20260508024503 47 332 3.5 5.2 0.00 0.12 0.00 95 1015.9
20260508024005 47 316 3.5 6.1 0.00 0.08 0.00 93 1013.9
20260508023505 47 323 3.5 4.3 0.00 0.08 0.00 93 1014.0
20260508023503 47 341 3.5 4.3 0.00 0.12 0.00 94 1015.8
20260508023003 47 339 2.6 4.3 0.00 0.12 0.00 94 1015.8
20260508022506 47 329 3.5 4.3 0.00 0.08 0.00 93 1014.0
20260508022504 47 342 2.6 3.5 0.00 0.12 0.00 94 1015.9
20260508022005 47 319 2.6 4.3 0.00 0.08 0.00 93 1013.9
20260508022003 47 346 2.6 4.3 0.00 0.12 0.00 94 1015.9
20260508021505 47 313 2.6 3.5 0.00 0.08 0.00 93 1013.9
20260508021005 47 288 2.6 3.5 0.00 0.08 0.00 93 1013.9
20260508020503 47 331 3.5 6.1 0.00 0.12 0.00 94 1015.8
20260508020009 47 334 3.5 6.1 0.00 0.12 0.00 94 1015.9
20260508020006 48 343 4.3 7.0 0.00 0.08 0.00 93 1014.0
20260508015505 48 326 4.3 7.0 0.00 0.08 0.00 93 1014.0
20260508015005 48 329 4.3 7.0 0.00 0.08 0.00 93 1013.9
20260508015003 47 7 4.3 7.0 0.00 0.12 0.00 94 1015.8
20260508014503 47 1 3.5 5.2 0.00 0.12 0.00 94 1015.7
20260508014003 47 341 4.3 7.0 0.00 0.12 0.00 95 1015.7
20260508013505 48 346 5.2 7.0 0.00 0.08 0.00 93 1013.7
20260508013503 47 335 5.2 7.0 0.00 0.12 0.00 95 1015.5
20260508013004 47 350 4.3 7.0 0.00 0.12 0.00 95 1015.6
20260508012505 48 338 4.3 7.0 0.00 0.08 0.00 93 1013.9
20260508012503 47 23 4.3 7.0 0.00 0.12 0.00 95 1015.9
20260508012005 48 299 4.3 7.8 0.00 0.08 0.00 94 1013.9
20260508011505 48 311 5.2 7.8 0.00 0.08 0.00 94 1013.9
20260508011503 48 330 5.2 7.8 0.00 0.12 0.00 95 1015.9
20260508011005 48 332 4.3 7.0 0.00 0.08 0.00 93 1013.9
20260508010505 49 316 4.3 5.2 0.00 0.08 0.00 94 1014.0
20260508010010 48 310 3.5 4.3 0.00 0.12 0.00 96 1015.9
20260508010005 49 317 3.5 5.2 0.00 0.08 0.00 94 1014.0
20260508005504 49 339 3.5 5.2 0.00 0.08 0.00 94 1014.0
20260508005005 49 341 2.6 5.2 0.00 0.08 0.00 94 1014.1
20260508004503 48 355 2.6 4.3 0.00 0.12 0.00 95 1015.7
20260508004006 49 323 2.6 4.3 0.00 0.08 0.00 94 1014.0
20260508003505 49 324 2.6 4.3 0.00 0.08 0.00 94 1014.0
20260508003503 48 330 2.6 3.5 0.00 0.12 0.00 95 1016.0
20260508003005 49 312 2.6 3.5 0.00 0.08 0.00 94 1013.9
20260508002505 49 310 2.6 3.5 0.00 0.08 0.00 94 1013.9
20260508002503 48 333 2.6 3.5 0.00 0.12 0.00 95 1015.6
20260508002005 49 340 3.5 5.2 0.00 0.08 0.00 94 1013.7
20260508001505 49 351 3.5 5.2 0.00 0.08 0.00 94 1013.7
20260508001503 49 341 3.5 4.3 0.00 0.12 0.00 95 1015.8
20260508001005 49 2 3.5 3.5 0.00 0.08 0.00 94 1013.9
20260508000505 49 358 3.5 3.5 0.00 0.08 0.00 94 1013.7
20260508000503 49 316 3.5 3.5 0.00 0.12 0.00 95 1015.7
20260508000010 49 329 3.5 3.5 0.00 0.12 0.00 95 1015.5
20260507235505 49 315 2.6 3.5 0.00 0.08 0.00 94 1013.8
20260507235005 49 310 1.7 3.5 0.00 0.08 0.00 94 1013.7
20260507235003 49 339 1.7 3.5 0.00 0.12 0.00 95 1015.5
20260507234505 49 327 2.6 7.0 0.00 0.08 0.00 94 1013.8
20260507234503 49 21 2.6 6.1 0.00 0.12 0.00 95 1015.6
20260507234005 49 339 2.6 7.0 0.00 0.08 0.00 94 1013.8
20260507233505 49 344 2.6 7.0 0.00 0.08 0.00 94 1013.7
20260507233005 49 333 2.6 3.5 0.00 0.08 0.00 94 1013.7
20260507233003 49 332 2.6 3.5 0.00 0.12 0.00 95 1015.7
20260507232505 50 330 2.6 3.5 0.00 0.08 0.00 94 1013.6
20260507232503 49 337 2.6 3.5 0.00 0.12 0.00 96 1015.6
20260507232005 50 327 3.5 6.1 0.00 0.09 0.00 94 1013.7
20260507231505 50 326 4.3 6.1 0.00 0.11 0.00 95 1013.6
20260507231503 49 348 3.5 6.1 0.00 0.14 0.00 96 1015.4
20260507231005 50 322 3.5 5.2 0.00 0.11 0.00 95 1013.7
20260507231003 49 359 2.6 5.2 0.00 0.14 0.00 96 1015.5
20260507230505 50 319 2.6 3.5 0.00 0.11 0.00 95 1013.5
20260507230009 49 345 3.5 4.3 0.00 0.14 0.00 96 1015.6
20260507230005 50 330 2.6 4.3 0.00 0.11 0.00 95 1013.7
20260507225506 50 341 2.6 4.3 0.00 0.11 0.00 95 1013.6
20260507225504 49 351 2.6 4.3 0.00 0.14 0.00 96 1015.4
20260507225005 50 343 3.5 4.3 0.00 0.11 0.00 95 1013.6
20260507225003 49 350 2.6 3.5 0.00 0.14 0.00 96 1015.3
20260507224505 50 333 2.6 4.3 0.00 0.11 0.00 95 1013.5
20260507224503 49 4 2.6 4.3 0.00 0.14 0.00 96 1015.3
20260507224005 50 330 3.5 5.2 0.00 0.11 0.00 95 1013.6
20260507224003 49 356 2.6 5.2 0.00 0.14 0.00 96 1015.1
20260507223505 50 342 3.5 5.2 0.00 0.11 0.00 95 1013.6
20260507223005 50 342 2.6 4.3 0.00 0.11 0.00 94 1013.5
20260507223003 49 346 2.6 4.3 0.00 0.14 0.00 96 1015.4
20260507222505 50 320 2.6 5.2 0.00 0.11 0.00 94 1013.5
20260507222503 49 350 2.6 4.3 0.00 0.14 0.00 96 1015.5
20260507222005 50 317 2.6 5.2 0.00 0.11 0.00 94 1013.4
20260507221505 50 333 1.7 4.3 0.00 0.11 0.00 94 1013.5
20260507221503 50 349 2.6 4.3 0.00 0.15 0.00 96 1015.2
20260507220505 50 319 1.7 5.2 0.00 0.12 0.00 94 1013.5
20260507220005 50 338 2.6 6.1 0.00 0.12 0.00 94 1013.4
20260507215505 50 354 2.6 6.1 0.00 0.12 0.12 94 1013.3
20260507215503 50 2 2.6 6.1 0.00 0.15 0.15 97 1015.1
20260507215005 50 1 2.6 6.1 0.00 0.12 0.12 94 1013.3
20260507215003 50 14 2.6 6.1 0.00 0.15 0.15 97 1015.0
20260507214505 50 352 2.6 4.3 0.00 0.12 0.12 94 1013.3
20260507214005 50 345 3.5 4.3 0.00 0.12 0.12 94 1013.3
20260507213505 50 344 3.5 4.3 0.00 0.12 0.12 94 1013.3
20260507213503 50 23 2.6 4.3 0.00 0.15 0.15 96 1015.0
20260507213004 50 349 4.3 7.0 0.00 0.13 0.12 94 1013.2
20260507212505 51 352 4.3 7.0 0.00 0.13 0.12 94 1013.2
20260507212003 50 14 3.5 5.2 0.00 0.17 0.15 96 1015.0
20260507211505 50 351 3.5 7.0 0.00 0.13 0.12 94 1013.1
20260507211503 50 17 3.5 6.1 0.00 0.18 0.15 96 1014.9
20260507211005 50 343 4.3 7.0 0.00 0.13 0.12 94 1013.1
20260507211003 50 20 3.5 6.1 0.00 0.18 0.15 96 1015.1
20260507210505 50 321 3.5 5.2 0.00 0.14 0.12 94 1013.3
20260507210503 50 32 3.5 6.1 0.00 0.18 0.15 96 1014.8
20260507210009 50 23 2.6 4.3 0.00 0.22 0.15 96 1014.9
20260507210005 51 321 3.5 5.2 0.00 0.19 0.12 95 1013.3
20260507205503 50 331 2.6 5.2 0.00 0.25 0.15 96 1015.1
20260507205005 51 346 3.5 6.1 0.00 0.32 0.12 95 1013.1
20260507205003 50 349 2.6 5.2 0.00 0.38 0.15 96 1014.9
20260507204505 51 348 2.6 3.5 0.00 0.32 0.12 95 1013.3
20260507204003 50 335 2.6 3.5 0.00 0.38 0.15 96 1015.0
20260507203505 51 349 3.5 7.0 0.00 0.32 0.12 94 1013.2
20260507203005 51 349 3.5 7.0 0.00 0.32 0.12 94 1013.0
20260507203003 50 351 3.5 6.1 0.00 0.38 0.15 96 1015.0
20260507202505 51 345 2.6 5.2 0.00 0.32 0.12 94 1013.3
20260507202503 50 348 2.6 5.2 0.00 0.38 0.15 95 1014.9
20260507202005 51 325 2.6 6.1 0.00 0.32 0.12 94 1013.0
20260507202003 50 327 2.6 5.2 0.00 0.38 0.15 95 1014.9
20260507201504 51 333 3.5 6.1 0.00 0.32 0.12 94 1013.1
20260507201005 51 355 4.3 5.2 0.00 0.32 0.12 94 1012.8
20260507201003 50 6 2.6 4.3 0.00 0.38 0.15 95 1014.8
20260507200505 51 1 3.5 6.1 0.00 0.32 0.12 94 1012.9
20260507200503 50 344 3.5 6.1 0.00 0.38 0.15 95 1014.7
20260507200009 50 328 3.5 6.1 0.00 0.38 0.15 95 1014.5
20260507200005 51 336 4.3 6.1 0.00 0.32 0.12 94 1012.8
20260507195505 51 324 3.5 6.1 0.00 0.32 0.12 94 1012.9
20260507195503 50 345 2.6 6.1 0.00 0.38 0.15 95 1014.6
20260507195003 50 13 2.6 4.3 0.00 0.38 0.15 95 1014.8
20260507194505 51 312 2.6 4.3 0.00 0.32 0.12 94 1012.9
20260507194503 51 356 2.6 4.3 0.00 0.38 0.15 94 1014.6
20260507194005 51 296 4.3 7.0 0.00 0.32 0.12 94 1012.7
20260507193505 51 318 4.3 7.0 0.00 0.32 0.12 93 1012.8
20260507193503 51 357 4.3 7.0 0.00 0.38 0.15 94 1014.3
20260507193005 51 345 4.3 7.0 0.00 0.32 0.12 93 1012.6
20260507192505 51 342 4.3 6.1 0.00 0.32 0.12 93 1012.5
20260507192503 51 13 4.3 6.1 0.00 0.38 0.15 94 1014.2
20260507192005 51 335 4.3 6.1 0.00 0.32 0.12 93 1012.5
20260507191503 51 340 3.5 5.2 0.00 0.38 0.15 94 1014.2
20260507191005 51 339 3.5 5.2 0.00 0.32 0.12 93 1012.5
20260507191003 51 351 3.5 4.3 0.00 0.38 0.15 93 1014.2
20260507190505 51 331 3.5 5.2 0.00 0.32 0.12 93 1012.4
20260507190010 51 24 3.5 5.2 0.00 0.38 0.15 93 1014.1
20260507185505 52 318 4.3 5.2 0.00 0.32 0.12 92 1012.5
20260507185503 51 7 3.5 5.2 0.00 0.38 0.15 93 1014.2
20260507184505 52 325 4.3 7.0 0.00 0.32 0.12 91 1012.2
20260507184503 51 337 4.3 7.8 0.00 0.38 0.15 93 1013.9
20260507184005 52 313 5.2 7.0 0.00 0.32 0.12 91 1012.1
20260507184003 52 334 5.2 7.8 0.00 0.38 0.15 93 1014.0
20260507183505 52 312 4.3 7.0 0.00 0.32 0.12 91 1012.0
20260507183005 52 334 4.3 7.0 0.00 0.32 0.12 91 1012.0
20260507183003 52 340 3.5 6.1 0.00 0.38 0.15 91 1013.8
20260507182505 52 351 3.5 5.2 0.00 0.32 0.12 90 1011.9
20260507182503 52 357 3.5 4.3 0.00 0.38 0.15 91 1013.8
20260507182005 53 337 3.5 4.3 0.00 0.32 0.12 90 1011.8
20260507182003 52 7 2.6 5.2 0.00 0.38 0.15 91 1013.6
20260507181505 53 322 3.5 4.3 0.00 0.32 0.12 90 1011.8
20260507181003 52 357 3.5 5.2 0.00 0.38 0.15 91 1013.6
20260507180505 53 349 4.3 6.1 0.00 0.32 0.12 90 1011.6
20260507180009 53 353 3.5 5.2 0.00 0.38 0.15 91 1013.6
20260507180005 53 356 4.3 6.1 0.00 0.32 0.12 90 1011.7
20260507175504 53 331 3.5 7.0 0.00 0.38 0.15 91 1013.7
20260507175005 53 332 4.3 6.1 0.00 0.32 0.12 89 1011.4
20260507175003 53 355 4.3 7.0 0.00 0.38 0.15 90 1013.3
20260507174505 53 334 4.3 6.1 0.00 0.32 0.12 89 1011.5
20260507174503 53 11 4.3 5.2 0.00 0.38 0.15 90 1013.3
20260507174004 54 317 4.3 7.0 0.00 0.32 0.12 88 1011.4
20260507173505 54 288 5.2 7.0 0.00 0.32 0.12 88 1011.5
20260507173503 53 17 5.2 7.8 0.00 0.38 0.15 90 1013.3
20260507173005 54 320 4.3 6.1 0.00 0.32 0.12 88 1011.5
20260507172505 54 349 3.5 6.1 0.00 0.32 0.12 88 1011.4
20260507172503 53 12 3.5 6.1 0.00 0.38 0.15 89 1013.2
20260507172005 54 324 3.5 6.1 0.00 0.32 0.12 88 1011.3
20260507172003 54 30 3.5 5.2 0.00 0.38 0.15 88 1013.4
20260507171504 54 324 3.5 6.1 0.00 0.32 0.12 88 1011.2
20260507171003 54 16 4.3 5.2 0.00 0.38 0.15 88 1013.3
20260507170505 54 323 4.3 5.2 0.00 0.32 0.12 88 1011.0
20260507170503 54 15 3.5 5.2 0.00 0.38 0.15 88 1013.0
20260507170010 54 4 3.5 5.2 0.00 0.38 0.15 88 1013.1
20260507170006 55 314 3.5 5.2 0.00 0.32 0.12 87 1011.0
20260507165505 55 312 4.3 6.1 0.00 0.32 0.12 87 1011.2
20260507165503 54 11 3.5 5.2 0.00 0.38 0.15 88 1012.9
20260507165004 55 333 4.3 6.1 0.00 0.32 0.12 87 1011.0
20260507164505 55 346 3.5 6.1 0.00 0.32 0.12 87 1010.9
20260507164003 54 337 4.3 7.0 0.00 0.38 0.15 87 1012.9
20260507163504 55 338 5.2 7.8 0.00 0.32 0.12 87 1010.8
20260507163005 55 337 4.3 7.8 0.00 0.32 0.12 87 1010.6
20260507162003 55 357 5.2 7.8 0.00 0.38 0.15 87 1012.7
20260507161004 56 1 6.1 7.0 0.00 0.32 0.12 87 1010.7
20260507160505 56 357 7.0 7.0 0.00 0.32 0.12 87 1010.6
20260507160503 55 39 5.2 7.8 0.00 0.38 0.15 86 1012.5
20260507160005 56 341 6.1 7.0 0.00 0.32 0.12 87 1010.7
20260507155503 55 295 6.1 8.7 0.00 0.38 0.15 86 1012.4
20260507155005 56 331 6.1 8.7 0.00 0.32 0.12 87 1010.7
20260507154505 56 315 5.2 7.0 0.00 0.32 0.12 86 1010.7
20260507154503 56 10 5.2 8.7 0.00 0.38 0.15 86 1012.6
20260507154005 56 330 5.2 8.7 0.00 0.32 0.12 86 1010.6
20260507154003 56 354 5.2 9.6 0.00 0.38 0.15 85 1012.5
20260507153505 57 338 5.2 8.7 0.00 0.32 0.12 86 1010.7
20260507153503 57 358 5.2 9.6 0.00 0.38 0.15 85 1012.4
20260507153003 57 357 5.2 7.0 0.00 0.38 0.15 84 1012.4
20260507152505 58 324 4.3 7.0 0.00 0.32 0.12 85 1010.3
20260507152503 58 353 4.3 6.1 0.00 0.38 0.15 84 1012.0
20260507152005 58 322 4.3 7.0 0.00 0.32 0.12 85 1010.1
20260507152003 58 321 4.3 6.1 0.00 0.38 0.15 84 1012.0
20260507151505 58 330 5.2 7.0 0.00 0.32 0.12 85 1010.1
20260507151005 59 326 4.3 7.0 0.00 0.32 0.12 85 1010.3
20260507150009 60 349 5.2 7.0 0.01 0.38 0.15 83 1012.0
20260507150006 60 314 5.2 7.0 0.00 0.32 0.12 84 1010.1
20260507145504 60 318 5.2 7.0 0.00 0.32 0.12 84 1010.0
20260507145005 60 317 6.1 10.4 0.00 0.32 0.12 85 1010.3
20260507145003 60 357 6.1 10.4 0.01 0.38 0.15 83 1012.0
20260507144503 60 348 6.1 10.4 0.01 0.38 0.15 84 1011.8
20260507144006 60 304 5.2 7.8 0.00 0.32 0.12 86 1010.3
20260507143505 60 335 6.1 7.8 0.00 0.32 0.12 86 1010.4
20260507143503 60 321 5.2 7.0 0.01 0.38 0.15 85 1011.9
20260507143005 60 348 6.1 7.0 0.00 0.32 0.12 86 1010.2
20260507142505 60 332 5.2 7.8 0.00 0.32 0.12 86 1010.3
20260507142005 60 331 5.2 8.7 0.00 0.32 0.12 86 1010.3
20260507141505 60 325 5.2 8.7 0.00 0.32 0.12 86 1010.1
20260507141503 60 334 6.1 8.7 0.01 0.38 0.15 85 1011.6
20260507141007 60 321 4.3 7.8 0.00 0.32 0.12 86 1010.0
20260507140505 60 319 3.5 3.5 0.00 0.32 0.12 86 1010.1
20260507140010 59 332 3.5 4.3 0.00 0.37 0.14 85 1012.0
20260507140006 60 315 3.5 4.3 0.00 0.32 0.12 86 1010.2
20260507135505 60 294 3.5 7.0 0.00 0.32 0.12 87 1010.5
20260507135503 59 353 3.5 7.0 0.00 0.37 0.14 85 1012.0
20260507135005 60 296 3.5 7.0 0.00 0.32 0.12 87 1010.2
20260507135003 59 354 3.5 7.0 0.00 0.37 0.14 85 1011.9
20260507134504 59 326 3.5 4.3 0.00 0.37 0.14 85 1011.9
20260507134005 60 295 4.3 7.0 0.00 0.32 0.12 86 1010.3
20260507134003 60 291 4.3 7.0 0.00 0.37 0.14 84 1012.0
20260507133503 60 280 4.3 7.0 0.00 0.37 0.14 84 1012.0
20260507133003 60 275 3.5 5.2 0.00 0.37 0.14 84 1012.1
20260507132505 60 303 3.5 4.3 0.00 0.32 0.12 87 1010.2
20260507132003 61 305 3.5 5.2 0.00 0.37 0.14 84 1011.9
20260507131505 61 300 3.5 5.2 0.00 0.32 0.12 87 1010.2
20260507131005 61 307 2.6 3.5 0.00 0.32 0.12 86 1010.1
20260507131003 61 298 2.6 3.5 0.00 0.37 0.14 83 1011.7
20260507130505 61 304 3.5 4.3 0.00 0.32 0.12 87 1010.1
20260507130503 61 304 3.5 4.3 0.00 0.37 0.14 84 1011.6
20260507130005 61 313 3.5 4.3 0.00 0.32 0.12 87 1009.9
20260507125505 61 336 3.5 6.1 0.00 0.32 0.12 88 1009.9
20260507125503 60 11 3.5 7.0 0.00 0.37 0.14 84 1011.4
20260507125005 60 324 2.6 7.0 0.00 0.32 0.12 89 1009.9
20260507124504 60 22 2.6 7.0 0.00 0.37 0.14 84 1011.7
20260507124003 60 19 2.6 3.5 0.00 0.37 0.14 85 1011.6
20260507123504 60 36 1.7 3.5 0.00 0.37 0.14 86 1011.4
20260507123003 60 350 1.7 3.5 0.00 0.37 0.14 86 1011.6
20260507122504 60 322 0.9 4.3 0.00 0.32 0.12 93 1010.0
20260507122005 60 271 1.7 4.3 0.00 0.32 0.12 94 1010.0
20260507121505 60 215 2.6 4.3 0.00 0.32 0.12 95 1010.2
20260507121503 59 29 2.6 3.5 0.00 0.37 0.14 89 1011.7
20260507121005 59 158 2.6 2.6 0.00 0.32 0.12 95 1010.0
20260507121003 59 52 1.7 2.6 0.00 0.37 0.14 89 1011.7
20260507120503 59 77 1.7 4.3 0.00 0.37 0.14 90 1011.8
20260507115505 58 7 0.9 4.3 0.00 0.32 0.12 98 1009.9
20260507115004 58 337 0.9 3.5 0.00 0.32 0.12 99 1009.9
20260507114505 58 331 2.6 4.3 0.00 0.32 0.12 99 1010.1
20260507114503 58 64 2.6 3.5 0.00 0.37 0.14 94 1011.6
20260507114005 57 330 1.7 4.3 0.00 0.32 0.12 99 1009.9
20260507113505 57 351 0.9 3.5 0.00 0.32 0.12 99 1010.0
20260507113503 57 347 1.7 3.5 0.00 0.37 0.14 96 1011.8
20260507113005 57 348 0.9 2.6 0.00 0.32 0.12 99 1010.2
20260507112505 56 4 0.0 2.6 0.00 0.32 0.12 99 1010.3
20260507112503 57 338 2.6 3.5 0.00 0.37 0.14 97 1011.8
20260507112005 56 2 0.9 3.5 0.00 0.32 0.12 99 1010.3
20260507112003 57 6 2.6 3.5 0.00 0.37 0.14 99 1012.0
20260507111506 56 1 0.9 3.5 0.00 0.32 0.12 99 1010.2
20260507111503 57 44 1.7 3.5 0.00 0.37 0.14 99 1011.6
20260507111004 56 158 0.9 2.6 0.00 0.32 0.12 99 1010.1
20260507110505 56 158 0.9 2.6 0.00 0.32 0.12 99 1009.9
20260507110503 56 70 1.7 2.6 0.00 0.37 0.14 99 1011.7
20260507110005 55 0 0.0 0.0 0.00 0.32 0.12 99 1009.9
20260507105504 55 337 0.0 1.7 0.00 0.32 0.12 97 1010.0
20260507105005 55 331 1.7 4.3 0.00 0.32 0.12 97 1009.9
20260507104505 55 321 2.6 4.3 0.00 0.32 0.12 97 1009.9
20260507104004 54 302 2.6 4.3 0.00 0.32 0.12 97 1009.7
20260507103503 55 67 2.6 3.5 0.00 0.37 0.14 97 1011.5
20260507103005 54 292 0.9 4.3 0.00 0.32 0.12 97 1009.6
20260507102505 54 315 0.9 3.5 0.00 0.32 0.12 97 1009.7
20260507102503 55 67 1.7 3.5 0.00 0.37 0.14 97 1011.4
20260507102007 54 321 0.0 3.5 0.00 0.32 0.12 97 1009.6
20260507102004 54 347 1.7 3.5 0.00 0.37 0.14 97 1011.1
20260507101506 54 324 0.9 2.6 0.00 0.32 0.12 97 1009.7
20260507101503 54 309 1.7 3.5 0.00 0.37 0.14 97 1011.1
20260507101004 54 334 2.6 2.6 0.00 0.32 0.12 97 1009.5
20260507100504 54 1 1.7 2.6 0.00 0.37 0.14 97 1011.2
20260507100005 53 338 1.7 3.5 0.00 0.32 0.12 98 1009.3
20260507095505 53 330 1.7 3.5 0.00 0.32 0.12 98 1009.2
20260507095503 54 339 2.6 3.5 0.00 0.37 0.14 97 1010.8
20260507095003 54 357 2.6 3.5 0.00 0.37 0.14 97 1010.9
20260507094505 53 354 2.6 4.3 0.00 0.32 0.12 98 1009.2
20260507094503 54 352 3.5 3.5 0.00 0.37 0.14 97 1010.7
20260507094005 53 359 2.6 4.3 0.00 0.32 0.12 98 1009.1
20260507094003 54 345 3.5 3.5 0.00 0.37 0.14 97 1010.7
20260507093504 53 316 2.6 3.5 0.00 0.32 0.12 98 1009.1
20260507093003 53 350 2.6 3.5 0.00 0.37 0.14 98 1011.0
20260507092505 53 349 2.6 4.3 0.00 0.32 0.12 98 1009.1
20260507092004 53 347 3.5 4.3 0.00 0.32 0.12 98 1009.2
20260507091505 53 343 2.6 3.5 0.00 0.32 0.12 98 1009.2
20260507091003 53 348 2.6 3.5 0.00 0.37 0.14 98 1010.5
20260507090504 53 344 3.5 3.5 0.00 0.32 0.12 98 1008.9
20260507090009 53 344 2.6 3.5 0.00 0.37 0.14 98 1010.5
20260507090006 53 336 2.6 3.5 0.00 0.32 0.12 98 1008.8
20260507085505 53 356 2.6 3.5 0.00 0.32 0.12 98 1008.7
20260507085004 53 357 3.5 4.3 0.00 0.32 0.12 98 1008.6
20260507084505 53 351 3.5 5.2 0.00 0.32 0.12 98 1008.6
20260507084005 53 336 3.5 5.2 0.00 0.32 0.12 98 1008.5
20260507084003 53 351 3.5 5.2 0.00 0.37 0.14 98 1010.4
20260507083505 53 341 3.5 5.2 0.00 0.32 0.12 98 1008.4
20260507083004 53 25 3.5 4.3 0.00 0.37 0.14 98 1010.0
20260507082505 53 346 3.5 5.2 0.00 0.32 0.12 98 1008.3
20260507082003 53 343 3.5 6.1 0.00 0.37 0.14 98 1009.9
20260507081504 53 349 3.5 6.1 0.00 0.37 0.14 98 1009.5
20260507081005 53 1 4.3 5.2 0.00 0.32 0.12 98 1008.1
20260507080505 53 355 4.3 4.3 0.00 0.32 0.12 98 1008.0
20260507080009 53 342 3.5 5.2 0.00 0.37 0.14 98 1009.8
20260507080005 53 339 4.3 5.2 0.00 0.32 0.12 98 1008.1
20260507075505 53 326 3.5 5.2 0.00 0.32 0.12 98 1008.1
20260507075005 53 339 4.3 6.1 0.00 0.32 0.12 98 1008.0
20260507074504 53 342 4.3 6.1 0.00 0.32 0.12 98 1007.9
20260507074005 54 325 4.3 6.1 0.00 0.32 0.12 97 1007.9
20260507073505 54 302 3.5 4.3 0.00 0.32 0.12 97 1007.8
20260507073503 53 322 3.5 5.2 0.00 0.37 0.14 98 1009.6
20260507073004 53 294 3.5 5.2 0.00 0.37 0.14 98 1009.5
20260507072505 54 318 3.5 5.2 0.01 0.32 0.12 97 1007.7
20260507072005 54 313 4.3 7.0 0.02 0.32 0.12 97 1007.7
20260507071505 54 319 4.3 7.0 0.02 0.32 0.12 97 1007.6
20260507071005 54 325 4.3 7.0 0.02 0.32 0.12 97 1007.5
20260507070504 54 331 4.3 6.1 0.04 0.32 0.12 97 1007.5
20260507070009 55 328 3.5 6.1 0.04 0.32 0.12 97 1007.4
20260507065505 55 316 2.6 4.3 0.04 0.32 0.12 97 1007.3
20260507065503 55 316 2.6 3.5 0.04 0.37 0.14 97 1009.1